Location: American Medical Response
(33.3472°N, 96.5511°W)
Time: 11:26:17
(UTC+00:00)

Lacrosse 5 rocket - Pass Details

Date: 01 July 2022
Orbit: 455 x 628 km, 57.0° (Epoch: 07 August)

Event Time Altitude Azimuth Distance (km) Brightness Sun altitude
Rises 04:56:35 0° 310° (NW) 2,642 5.7 -29.3°
Reaches altitude 10° 04:58:53 10° 300° (WNW) 1,782 4.5 -29.5°
Enters shadow 05:00:18 19° 287° (WNW) 1,323 3.6 -29.6°
